Flag for USA

Past Weather in Auburn, California, USA — Yesterday and Last 2 Weeks

Now
82 °F

Clear.


Feels Like: 80 °F
Forecast: 94 / 66 °F
Wind: 5 mph from Southeast

Location: Auburn Municipal Airport

Current Time: Jul 12, 2020 at 10:34:29 pm

Latest Report: Jul 12, 2020 at 9:55 pm


Visibility: 10 mi

Pressure: 29.86 "Hg

Humidity: 16%

Dew Point: 32 °F

Location of AuburnLocation

Past Weather in Auburn — Graph

°F

Auburn Temperature Yesterday

Maximum temperature yesterday: 99 °F (at 3:15 pm)
Minimum temperature yesterday: 73 °F (at 2:55 am)
Average temperature yesterday: 85 °F

High & Low Weather Summary for the Past Weeks

 TemperatureHumidityPressure
High99 °F (Jul 11, 3:15 pm)88% (Jun 29, 4:15 am)30.08 "Hg (Jun 29, 4:15 am)
Low52 °F (Jun 29, 4:15 am)8% (Jul 5, 6:15 pm)29.67 "Hg (Jun 28, 5:55 pm)
Average77 °F34%29.91 "Hg
* Reported Jun 27 9:15 pm — Jul 12 9:35 pm, Auburn. Weather by CustomWeather, © 2020

Note: Actual official high and low records may vary slightly from our data, if they occured in-between our weather recording intervals... More about our weather records

Auburn Weather History for the Previous 24 Hours

Scroll right to see more
 ConditionsComfort  
Time TempWeatherWind HumidityBarometerVisibility
9:35 pm
Sun, Jul 12
82 °FClear.5 mph16%29.85 "Hg10 mi
9:15 pm86 °FClear.5 mph15%29.85 "Hg10 mi
8:55 pm88 °FClear.No wind16%29.85 "Hg10 mi
8:35 pm90 °FClear.No wind15%29.85 "Hg10 mi
8:15 pm91 °FSunny.No wind13%29.85 "Hg10 mi
7:55 pm93 °FSunny.5 mph12%29.85 "Hg10 mi
7:35 pm93 °FSunny.6 mph12%29.85 "Hg10 mi
7:15 pm95 °FSunny.7 mph11%29.85 "Hg10 mi
6:35 pm97 °FSunny.6 mph12%29.85 "Hg10 mi
5:55 pm97 °FSunny.6 mph12%29.85 "Hg10 mi
4:55 pm97 °FSunny.10 mph14%29.87 "Hg10 mi
4:35 pm99 °FSunny.7 mph13%29.88 "Hg10 mi
4:15 pm99 °FSunny.8 mph12%29.89 "Hg10 mi
3:55 pm99 °FSunny.5 mph10%29.89 "Hg10 mi
3:35 pm99 °FSunny.12 mph10%29.90 "Hg10 mi
3:15 pm99 °FSunny.8 mph10%29.90 "Hg10 mi
2:55 pm99 °FSunny.10 mph9%29.91 "Hg10 mi
2:35 pm99 °FSunny.10 mph8%29.91 "Hg10 mi
1:55 pm97 °FSunny.5 mph9%29.93 "Hg10 mi
1:35 pm97 °FSunny.5 mph9%29.93 "Hg10 mi
1:15 pm95 °FSunny.5 mph11%29.94 "Hg9 mi
12:55 pm95 °FSunny.5 mph15%29.95 "Hg10 mi
12:35 pm93 °FSunny.No wind16%29.95 "Hg10 mi
12:15 pm93 °FSunny.No wind19%29.96 "Hg10 mi
11:55 am93 °FSunny.7 mph20%29.96 "Hg10 mi
11:35 am91 °FSunny.7 mph21%29.96 "Hg10 mi
11:15 am91 °FSunny.5 mph23%29.97 "Hg10 mi
10:50 am91 °FSunny.6 mph23%29.96 "Hg10 mi
10:35 am91 °FSunny.5 mph17%29.96 "Hg10 mi
10:15 am91 °FSunny.5 mph16%29.96 "Hg10 mi
9:55 am90 °FSunny.3 mph17%29.96 "Hg10 mi
9:35 am90 °FSunny.5 mph18%29.96 "Hg10 mi
9:15 am90 °FSunny.6 mph18%29.97 "Hg10 mi
8:55 am88 °FSunny.6 mph21%29.97 "Hg10 mi
8:35 am84 °FSunny.7 mph22%29.97 "Hg10 mi
8:15 am82 °FSunny.7 mph23%29.97 "Hg10 mi
7:55 am81 °FSunny.7 mph24%29.97 "Hg10 mi
7:35 am79 °FSunny.8 mph24%29.97 "Hg10 mi
7:15 am77 °FSunny.8 mph24%29.97 "Hg10 mi
6:35 am75 °FSunny.8 mph25%29.97 "Hg10 mi
6:15 am75 °FSunny.10 mph25%29.97 "Hg10 mi
5:55 am73 °FSunny.10 mph27%29.97 "Hg10 mi
5:35 am73 °FClear.12 mph27%29.97 "Hg10 mi
4:55 am75 °FClear.10 mph25%29.96 "Hg10 mi
4:35 am75 °FClear.9 mph27%29.96 "Hg10 mi
4:15 am75 °FClear.10 mph27%29.96 "Hg10 mi
3:55 am75 °FClear.9 mph27%29.96 "Hg10 mi
3:35 am75 °FClear.9 mph27%29.97 "Hg10 mi
3:15 am75 °FClear.9 mph27%29.97 "Hg10 mi
2:55 am75 °FClear.8 mph29%29.97 "Hg10 mi
2:35 am75 °FClear.7 mph29%29.98 "Hg10 mi
2:15 am75 °FClear.7 mph29%29.99 "Hg10 mi
1:55 am75 °FClear.6 mph29%29.99 "Hg10 mi
1:35 am77 °FClear.6 mph28%29.99 "Hg10 mi
1:15 am77 °FClear.7 mph28%29.99 "Hg10 mi
12:55 am77 °FClear.7 mph28%30.00 "Hg10 mi
12:35 am75 °FClear.6 mph31%30.00 "Hg10 mi
12:15 am77 °FClear.7 mph30%30.00 "Hg10 mi
11:55 pm
Sat, Jul 11
79 °FClear.8 mph28%30.01 "Hg10 mi
11:35 pm77 °FClear.8 mph30%30.01 "Hg10 mi
11:15 pm77 °FClear.8 mph30%30.01 "Hg10 mi
10:55 pm79 °FClear.7 mph28%30.01 "Hg10 mi
10:35 pm79 °FClear.7 mph26%30.01 "Hg10 mi
10:15 pm79 °FClear.No wind26%30.01 "Hg10 mi
Weather by CustomWeather, © 2020

See weather overview